Showing default

SORAYA, 58817

Orbit data source: Space-Track

SORAYA, 58817 is a payload satellite owned by IRSA (IR) in LEO that was launched on Sat, 20 Jan 2024 UTC via a QAEM-100 launch vehicle from the Sharud Missile Test Site (SMTS). Payload-class satellites include a variety of spacecraft equipped with specific instruments for various scientific and technological missions. These include communications satellites like Starlink; space stations such as the ISS; scientific satellites like the Hubble; Earth observation satellites from companies like Planet Labs, Umbra, and HawkEye 360; GPS; miniature CubeSats for education and research; and military/defense satellites.

Loading next visibility...
Identifier
58817, 2024-015A
Orbit
LEO
Country
Flag of IRIR / IRAN
Related business
Manufacturer
ISRC
Mission
Operational Defense Communications
Bus & Motor
Unknown
Mass
~50 kg wet, ~50 kg dry
Launch date (UTC)
2024-01-20 (2 years ago)
Launch vehicle
QAEM-100
Launch site
Sharud Missile Test Site (SMTS)
Object type
Payload
Rocket body
Debris
Shape & HBR
Box, 0.3 m
Radar Cross Section
0.375 m², Large (>1 m²)

Expand to show TLE details & history
Last TLE update: 21 hours ago

TLE from 21 hours ago
0 SORAYA
1 58817U 24015A   26172.55245506  .00000022  00000-0  38688-4 0  9992
2 58817  64.5160  68.1977 0009049 260.3290  99.6774 14.42715513127404
Epoch: 2026-06-21T13:15Z
TLE epoch observation values (Epoch: 2026-06-21T13:15:32.117Z)
Latitude
0.00003°
Longitude
-40.43719°
Altitude
752.573 km
Speed
7.478 km/s
True Right ascension
04h 32m 47s
True Declination
0° 00' 00"
Sunlit
Object was in daylight at epoch
Visualization orbit readout
Latitude
Unknown
Longitude
Unknown
Altitude
Unknown
Speed
Unknown
Apparent Right ascension
Unknown
Apparent Declination
Unknown
Sunlit
N/A
Visualization observer readout
Local Sidereal Time
21:29:04
Azimuth
Unknown
Elevation
Unknown
Doppler factor
Unknown
Orbital elements
Apogee altitude
754.62 km
Perigee altitude
741.723 km
Semi-major axis
7,126.308 km
Eccentricity
0.0009
Inclination
64.516°
RAAN
68.1977°
Arg. of periapsis
260.329°
True anomaly
99.7796°
Mean anomaly
99.6774°
Eccentric anomaly
99.7285°
Mean motion
3.60783 °/min
Orbital period
99.78 mins
BSTAR
0.000038688
Loading maneuver chart data...
Computing Atmospheric mass density...
Loading historical data...
Loading historical data...
Loading historical data...
Loading historical data...
Loading historical data...
Loading historical data...
Loading historical data...
Other satellites on launch #15 in the year 2024 (2024-01-20 UTC)

Documentation

Showing up to 5 results
|